www.pogodaiklimat.ru

Погода и климат >> Архив погоды >> Россия >> Владимирская область >> Суздаль


ПОГОДА в Суздале

  • Прогноз погоды в Суздале
  • Монитор погоды в Суздале

АРХИВ ПОГОДЫ в Суздале

Время (UTC), дата Ветер
(напр.,м/с)
 
Видим.   Явления Облачность Т
(С)
Тd
(С)
f
(%)
Тe
(С)
Тes
(С)
Комфортность P
(гПа)
Po
(гПа)
Тmin
(С)
Tmax
(С)
R
(мм)
R24
(мм)
S
(см)
00 19.06 штиль 0 н/о н/о +15.4 +12.7 84 +15 +15 1013.0 998.6
03 19.06 СЗ 2 н/о н/о +17.5 +12.4 72 +18 +18 1013.7 999.4 +13.5 1
06 19.06 штиль 0 н/о н/о +22.3 +12.7 55 +25 +25 комфорт 1014.2 1000.2 +13.5
09 19.06 СЗ 2 н/о н/о +25.6 +9.5 36 +26 +26 жарко 1014.2 1000.3
12 19.06 С 2 н/о н/о +26.8 +9.5 34 +27 +27 жарко 1014.1 1000.3
15 19.06 СЗ 2 н/о н/о +25.6 +9.0 35 +26 +26 жарко 1013.9 1000.0 +27.2
18 19.06 штиль 0 н/о н/о +20.0 +12.5 62 +22 +22 комфорт 1014.4 1000.3
21 19.06 штиль 0 н/о н/о +15.1 +11.7 80 +15 +15 1015.5 1001.0
00 20.06 штиль 0 н/о н/о +11.8 +10.2 90 +11 +11 1016.2 1001.6
03 20.06 штиль 0 н/о н/о +19.4 +12.5 64 +21 +21 комфорт 1016.4 1002.2 +11.7
06 20.06 З 1 н/о н/о +25.0 +12.8 47 +27 +27 жарко 1016.5 1002.5 +11.7
09 20.06 СЗ 2 н/о н/о +27.8 +8.0 29 +28 +28 жарко 1016.1 1002.3
12 20.06 штиль 0 н/о н/о +29.2 +7.2 25 +28 +28 жарко 1015.7 1001.9
15 20.06 штиль 0 н/о н/о +27.1 +7.5 29 +27 +27 жарко 1015.4 1001.5 +29.3
18 20.06 штиль 0 н/о н/о +19.4 +12.8 66 +21 +21 комфорт 1015.9 1001.7
21 20.06 штиль 0 н/о н/о +15.1 +12.0 82 +15 +15 1017.1 1002.6
00 21.06 штиль 0 н/о н/о +13.0 +11.2 89 +12 +12 1017.7 1003.1
03 21.06 штиль 0 н/о н/о +17.2 +13.0 76 +17 +17 1018.0 1003.6 +12.3
06 21.06 штиль 0 н/о н/о +23.4 +14.2 56 +27 +27 душно 1017.3 1003.3 +12.3
09 21.06 штиль 0 н/о н/о +28.8 +10.4 32 +29 +29 жарко 1016.7 1002.8
12 21.06 штиль 0 н/о н/о +29.1 +9.7 30 +29 +29 жарко 1016.1 1002.4
15 21.06 штиль 0 н/о н/о +29.3 +8.8 28 +29 +29 жарко 1015.3 1001.5 +30.9
18 21.06 СЗ 1 н/о н/о +22.7 +14.0 58 +26 +26 жарко 1015.4 1001.3
21 21.06 ЮЗ 1 н/о н/о +20.4 +14.7 70 +24 +24 комфорт 1015.8 1001.6
00 22.06 штиль 0 н/о н/о +17.7 +14.2 80 +18 +18 1015.6 1001.3
03 22.06 Ю 1 н/о н/о +21.5 +13.5 60 +24 +24 комфорт 1015.0 1000.9 +16.9
06 22.06 ЮЗ 2 н/о н/о +24.6 +15.0 55 +27 +27 жарко 1014.5 1000.5 +16.9
09 22.06 ЮЗ 4 н/о н/о +28.5 +14.2 42 +31 +31 душно 1014.4 1000.6
12 22.06 З 3 н/о н/о +31.2 +14.4 36 +33 +33 жарко 1013.5 999.9
15 22.06 З 2 н/о н/о +30.2 +14.0 37 +32 +32 жарко 1012.5 998.9 +31.5
18 22.06 штиль 0 н/о н/о +26.2 +14.0 47 +28 +28 жарко 1013.9 1000.0
21 22.06 штиль 0 н/о н/о +20.4 +15.7 74 +23 +23 комфорт 1014.9 1000.7
00 23.06 З 1 н/о н/о +19.2 +16.5 84 +22 +22 комфорт 1016.5 1002.3
03 23.06 СЗ 1 н/о н/о +19.2 +16.8 86 +22 +22 комфорт 1017.8 1003.5 +18.6
06 23.06 С 2 н/о н/о +22.9 +15.7 64 +27 +27 душно 1018.5 1004.4 +18.6
09 23.06 СЗ 3 н/о н/о +25.1 +14.0 50 +27 +27 жарко 1018.6 1004.6
12 23.06 З 3 н/о н/о +26.1 +8.2 32 +26 +26 жарко 1018.8 1004.8
15 23.06 СЗ 1 н/о н/о +23.4 +6.2 33 +24 +24 комфорт 1018.7 1004.6 +26.4
18 23.06 СЗ 1 н/о н/о +18.8 +7.7 48 +20 +20 1019.0 1004.7
21 23.06 СЗ 1 н/о н/о +15.1 +9.4 69 +16 +16 1020.3 1005.8
00 24.06 З 1 н/о н/о +15.4 +10.4 72 +16 +16 1020.6 1006.1
03 24.06 штиль 0 н/о н/о +15.7 +10.8 73 +16 +16 1021.3 1006.8 +14.0
06 24.06 С 2 н/о н/о +21.2 +8.5 44 +22 +22 комфорт 1021.3 1007.1 +14.0
09 24.06 С 2 н/о н/о +22.9 +4.8 31 +23 +23 комфорт 1020.9 1006.7
12 24.06 С 2 н/о н/о +23.3 +3.7 28 +23 +23 комфорт 1021.0 1006.8
15 24.06 штиль 0 н/о н/о +21.4 +3.5 31 +22 +22 комфорт 1021.5 1007.2 +23.9
18 24.06 штиль 0 н/о н/о +16.9 +6.7 51 +17 +17 1022.3 1007.8
21 24.06 штиль 0 н/о н/о +13.5 +7.0 65 +13 +13 1023.9 1009.2
03 25.06 СЗ 3 н/о н/о +13.1 +8.0 71 +12 +12 1025.7 1011.0 +9.4
09 25.06 З 2 н/о н/о +21.2 +6.4 38 +22 +22 комфорт 1025.3 1011.0

 

Местоположение метеостанции Суздаль (Владимирская область, Россия): широта 56.42 долгота 40.46 высота над уровнем моря 121 м.

В архиве по умолчанию представлена погода в Суздале за последнюю неделю. Архивные данные за месяц целиком и за предыдущие месяцы, начиная с января 2011 года, Вы можете получить, выбрав интересующий диапазон дат из раскрывающегося списка и нажав кнопку "Ввод!".


*Определитесь, кто Вы:
робот инопланетянин человек

Внимание! Время в таблицах - всемирное. Для получения местного времени необходимо прибавить поправку, которая равна 3 ч.

Смотрите также архив погоды в соседних городах и на ближайших метеорологических станциях:

Погода в Владимире (Владимирская область, Россия) (34 км)
Погода в Тейково (Ивановская область, Россия) (48 км)
Погода в Юрьев-Польском (Владимирская область, Россия) (48 км)
Погода в Коврове (Владимирская область, Россия) (55 км)
Погода в Иванове (Ивановская область, Россия) (67 км)
Погода в Шуе (Ивановская область, Россия) (75 км)
Погода в Петушках (Владимирская область, Россия) (82 км)
Погода в Гусь-Хрустальный (Владимирская область, Россия) (92 км)
Погода в Пешном (Атырауская область, Казахстан) (93 км)
Погода в Черустях (Московская область, Россия) (101 км)

Пояснения к столбцам:

Ветер - указаны скорость ветра в м/с - средняя за 10 мин, порывы в срок и между сроками (в фигурных скобках) и направление, откуда дует ветер: С - северный, СВ - северо-восточный, В - восточный, ЮВ - юго-восточный, Ю - южный, ЮЗ - юго-западный, З - западный, СЗ - северо-западный.
Видимость - горизонтальная дальность видимости в метрах или километрах. При видимости от 1 до 10 км при отсутствии осадков обычно наблюдается дымка, при ухудшении видимости до 1 км и менее - туман. В сухую погоду видимость может ухудшаться дымом, пылью или мглою.
Явления - указаны атмосферные явления, наблюдавшиеся в срок или в последний час перед сроком; фигурными скобками обозначены явления, наблюдавшиеся между сроками (за 1-3 часа до срока); квадратными скобками обозначены град или гололедные отложения с указанием их диаметра в мм.
Облачность - указаны через наклонную черту общая и нижняя облачность в баллах и высота нижней границы облаков в метрах; квадратными скобками обозначены формы облаков: Ci - перистые, Cs - перисто-слоистые, Cc - перисто-кучевые, Ac - высококучевые, As - высокослоистые, Sc - слоисто-кучевые, Ns - слоисто-дождевые, Cu - кучевые, Cb - кучево-дождевые. Подробнее классификацию облаков см. в Атласе облаков (PDF).
T - Температура воздуха - температура, измеренная на высоте 2 м над землей.
Td - Температура точки росы - температура, при понижении до которой содержащийся в воздухе водяной пар достигнет насыщения.
f - Относительная влажность воздуха - влажноcть воздуха, измеренная на высоте 2 м над землей.
Te - Эффективная температура - температура, которую ощущает одетый по сезону человек в тени. Характеристика душности погоды. При расчете учитывается влияние влажности воздуха и скорости ветра на теплоощущения человека.
Tes - Эффективная температура на солнце - температура, которую ощущает человек, с поправкой на солнечный нагрев. Характеристика знойности погоды. Зависит от высоты солнца над горизонтом, облачности и скорости ветра. Ночью, в пасмурную погоду, а также при ветре 12 м/с и более поправка равна нулю.
P - Атмосферное давление - приведенное к уровню моря атмосферное давление.
Po - Атмосферное давление - измеренное на уровне метеостанции атмосферное давление.
Tmin - Минимальная температура - минимум температуры воздуха на высоте 2 м над землей.
Tmax - Максимальная температура - максимум температуры воздуха на высоте 2 м над землей.
R - Количество осадков - Количество выпавших осадков за период времени, мм. При наведении курсора мыши на число - период времени, за который выпало указанное количество осадков.
R24 - Количество осадков - Количество выпавших осадков за 24 часа, мм.
S - Снежный покров - Высота снежного покрова, см. При наведении курсора мыши на число - состояние снежного покрова и степень покрытия местности в баллах.